IST,Max TemperatureF,Mean TemperatureF,Min TemperatureF,Max Dew PointF,MeanDew PointF,Min DewpointF,Max Humidity, Mean Humidity, Min Humidity, Max Sea Level PressureIn, Mean Sea Level PressureIn, Min Sea Level PressureIn, Max VisibilityMiles, Mean VisibilityMiles, Min VisibilityMiles, Max Wind SpeedMPH, Mean Wind SpeedMPH, Max Gust SpeedMPH,PrecipitationIn, CloudCover, Events, WindDirDegrees
2013-9-1,63,59,55,54,50,48,82,72,60,30.53,30.46,30.42,19,7,6,22,12,,0.00,6,,249
2013-9-2,67,62,57,61,58,54,100,87,76,30.39,30.37,30.36,19,6,3,17,14,,0.00,5,Rain,240
2013-9-3,69,60,51,54,52,50,94,76,52,30.38,30.29,30.21,12,6,6,13,5,,0.00,2,,202
2013-9-4,73,62,51,59,54,48,94,77,47,30.21,30.04,29.92,16,7,6,16,10,,0.08,3,Rain,170
2013-9-5,60,54,47,52,48,43,100,81,55,30.02,30.00,29.98,19,6,0,15,7,,0.04,5,Fog-Rain,299
2013-9-6,59,52,46,48,46,43,100,82,50,29.98,29.95,29.92,12,6,3,21,7,,0.16,4,Rain-Thunderstorm,333
2013-9-7,54,50,45,48,46,43,94,84,67,30.01,29.98,29.95,19,7,5,18,10,,0.12,6,Rain,295
2013-9-8,59,54,49,52,48,45,94,79,54,29.98,29.96,29.92,12,6,6,16,8,,0.00,6,Rain,208
2013-9-9,62,54,45,57,51,45,100,88,72,30.33,30.12,29.98,19,7,4,14,5,,0.01,5,Rain,320
2013-9-10,60,55,50,52,50,46,94,82,68,30.42,30.39,30.33,19,7,6,16,8,,0.00,5,,297
2013-9-11,63,58,54,61,57,50,100,92,82,30.42,30.30,30.21,12,6,2,21,10,,0.02,6,Rain,264
2013-9-12,64,58,53,63,59,52,100,96,88,30.21,30.11,30.06,12,5,2,18,10,,0.08,6,Rain,249
2013-9-13,59,54,48,52,48,43,100,84,55,30.17,30.14,30.09,19,7,6,9,4,,0.00,5,Rain,339
2013-9-14,61,54,46,50,48,45,94,80,52,30.18,30.13,30.06,19,7,6,13,4,,0.00,4,,258
2013-9-15,62,56,50,61,50,41,100,81,55,30.06,29.75,29.62,12,6,2,31,17,46,0.08,5,Rain,242
2013-9-16,57,52,48,45,43,39,82,71,50,29.78,29.74,29.65,12,7,4,29,20,44,0.04,4,Rain,279
2013-9-17,61,56,51,59,53,44,100,90,64,29.74,29.55,29.44,12,5,1,34,16,46,0.28,6,Rain,261
2013-9-18,58,54,50,52,47,44,94,77,60,29.92,29.79,29.53,19,7,6,20,12,,0.00,6,Rain,280
2013-9-19,60,56,51,60,50,46,100,79,63,29.98,29.83,29.62,12,6,2,26,14,39,0.00,6,Rain,251
2013-9-20,65,59,53,55,51,46,88,75,54,30.06,30.02,29.98,19,7,6,16,8,,0.00,6,,175
2013-9-21,72,65,58,64,59,55,94,88,78,30.21,30.12,30.01,16,6,6,17,8,,0.00,6,,189
2013-9-22,70,64,57,59,58,55,100,83,55,30.27,30.24,30.21,19,7,6,20,10,,0.00,4,,137
2013-9-23,69,64,60,63,59,57,94,86,73,30.22,30.11,30.01,19,7,6,20,13,,0.00,4,,123
2013-9-24,64,61,58,61,59,56,94,90,81,29.99,29.92,29.89,11,6,4,18,11,,0.02,6,Rain,106
2013-9-25,67,62,58,61,59,57,100,91,78,29.91,29.86,29.83,10,5,2,8,4,,0.03,6,Rain,106
2013-9-26,68,62,57,61,58,55,100,88,73,29.92,29.89,29.86,19,5,1,12,8,,0.00,5,Rain,102
2013-9-27,67,61,55,61,57,54,100,87,73,29.95,29.88,29.80,9,6,4,14,9,,0.00,5,Rain,100
2013-9-28,67,61,55,57,54,50,88,74,53,29.81,29.71,29.65,19,6,4,14,8,,0.00,6,,80
2013-9-29,63,61,59,55,54,54,82,79,72,29.69,29.65,29.62,12,6,4,17,12,,0.00,6,,96
2013-9-30,61,60,58,59,58,55,100,94,83,29.62,29.54,29.50,9,5,2,18,14,,0.08,7,Rain,97